Hartford, CT

5:58 AM EDT on August 17, 2017 (GMT -0400)
Hartford-brainard

Weather History for KHFD - December, 2012

Change the Weather History Date:

Tuesday, December 25, 2012

  Actual Average Record
Temperature  
Mean Temperature 32 °F -  
Max Temperature 37 °F 35 °F 64 °F (1964)
Min Temperature 27 °F 17 °F -10 °F (1980)
Degree Days  
Heating Degree Days 32    
Moisture  
Dew Point 26 °F    
Average Humidity 81    
Maximum Humidity 93    
Minimum Humidity 61    
Precipitation  
Precipitation 0.05 in - - ()
Sea Level Pressure  
Sea Level Pressure 30.05 in    
Wind  
Wind Speed 6 mph (North)    
Max Wind Speed 12 mph    
Max Gust Speed 18 mph    
Visibility 6 miles    
Events Rain , Snow    
Averages and records for this station are not official NWS values.
T = Trace of Precipitation, MM = Missing Value Source: NWS Daily Summary

Daily Weather History Graph

Daily Weather History Graph

Search for Another Location

Airport or City:

Trip Planner

Search our weather history database for the weather conditions in past years. The results will help you decide how hot, cold, wet, or windy it might be!

Date:

Astronomy

Dec. 25, 2012 Rise Set
Actual Time 7:16 AM EST 4:25 PM EST
Civil Twilight 6:44 AM EST 4:57 PM EST
Nautical Twilight 6:09 AM EST 5:32 PM EST
Astronomical Twilight 5:35 AM EST 6:06 PM EST
Moon 2:32 PM EST (12/25) 4:45 AM EST (12/25)
Length of Visible Light 10h 12m
Length of Day
9h 09m
Waxing Gibbous, 93% of the Moon is Illuminated
Dec 25
Waxing Gibbous
Dec 28
Full
Jan 4
Last Quarter
Jan 11
New
Jan 18
First Quarter

Hourly Weather History & Observations

Time (EST) Temp. Windchill Dew Point Humidity Pressure Visibility Wind Dir Wind Speed Gust Speed Precip Events Conditions
12:15 AM 30.2 °F 25.4 °F 28.4 °F 93% 29.99 in 1.2 mi NNE 4.6 mph - 0.01 in Snow Light Snow
12:39 AM 30.2 °F 25.4 °F 28.4 °F 93% 29.98 in 2.5 mi NNE 4.6 mph - 0.01 in Snow Light Snow
12:51 AM 30.2 °F 25.4 °F 26.6 °F 86% 29.98 in 4.0 mi NNE 4.6 mph - 0.01 in   Overcast
12:53 AM 30.0 °F 25.2 °F 27.0 °F 88% 29.98 in 4.0 mi NNE 4.6 mph - 0.01 in   Overcast
1:53 AM 30.9 °F 26.2 °F 27.0 °F 85% 29.98 in 7.0 mi North 4.6 mph - N/A   Overcast
2:53 AM 30.9 °F 26.2 °F 28.0 °F 89% 29.99 in 5.0 mi NNW 4.6 mph - 0.00 in   Overcast
3:10 AM 30.2 °F 25.4 °F 28.4 °F 93% 29.98 in 2.5 mi North 4.6 mph - 0.00 in Rain Light Freezing Rain
3:31 AM 30.2 °F 23.4 °F 28.4 °F 93% 29.97 in 3.0 mi North 6.9 mph - 0.00 in Rain Light Freezing Rain
3:38 AM 30.2 °F 23.4 °F 28.4 °F 93% 29.97 in 2.5 mi North 6.9 mph - 0.00 in Snow Light Snow
3:53 AM 30.9 °F 25.2 °F 28.0 °F 89% 29.96 in 2.0 mi North 5.8 mph - 0.00 in Snow Light Snow
4:04 AM 30.2 °F 23.4 °F 28.4 °F 93% 29.96 in 3.0 mi North 6.9 mph - 0.00 in   Overcast
4:14 AM 30.2 °F 23.4 °F 28.4 °F 93% 29.96 in 4.0 mi North 6.9 mph - 0.00 in   Overcast
4:39 AM 30.2 °F 22.6 °F 28.4 °F 93% 29.97 in 2.5 mi North 8.1 mph - 0.00 in Snow Light Snow
4:53 AM 30.9 °F 22.8 °F 28.0 °F 89% 29.97 in 2.5 mi North 9.2 mph - 0.01 in Snow Light Snow
5:22 AM 30.2 °F 21.9 °F 28.4 °F 93% 29.97 in 3.0 mi North 9.2 mph - 0.01 in   Overcast
5:53 AM 30.9 °F 24.3 °F 28.0 °F 89% 29.99 in 4.0 mi North 6.9 mph - 0.02 in   Overcast
6:53 AM 30.9 °F 23.5 °F 27.0 °F 85% 29.99 in 5.0 mi North 8.1 mph - 0.01 in   Overcast
7:29 AM 30.2 °F 21.3 °F 26.6 °F 86% 30.00 in 4.0 mi North 10.4 mph - 0.00 in Rain Light Freezing Rain
7:53 AM 30.9 °F 24.3 °F 27.0 °F 85% 30.01 in 4.0 mi North 6.9 mph - 0.00 in Rain Light Freezing Rain
8:15 AM 30.2 °F 22.6 °F 26.6 °F 86% 30.02 in 3.0 mi North 8.1 mph - 0.00 in Rain Light Freezing Rain
8:33 AM 30.2 °F 22.6 °F 26.6 °F 86% 30.03 in 2.5 mi North 8.1 mph - 0.00 in Rain Light Freezing Rain
8:53 AM 30.9 °F 25.2 °F 27.0 °F 85% 30.04 in 3.0 mi North 5.8 mph - 0.00 in Rain Light Freezing Rain
9:25 AM 30.2 °F 21.3 °F 26.6 °F 86% 30.06 in 6.0 mi NNW 10.4 mph - 0.00 in   Overcast
9:53 AM 30.9 °F 25.2 °F 27.0 °F 85% 30.06 in 3.0 mi North 5.8 mph - 0.00 in Snow Light Snow
10:08 AM 30.2 °F 21.3 °F 26.6 °F 86% 30.06 in 6.0 mi NNW 10.4 mph - 0.00 in   Overcast
10:53 AM 32.0 °F 24.8 °F 27.0 °F 82% 30.06 in 10.0 mi North 8.1 mph - 0.00 in   Overcast
11:10 AM 33.8 °F 25.8 °F 26.6 °F 75% 30.06 in 10.0 mi North 10.4 mph - N/A   Overcast
11:53 AM 33.1 °F 26.9 °F 27.0 °F 78% 30.06 in 9.0 mi North 6.9 mph - N/A   Overcast
12:03 PM 33.8 °F 25.8 °F 26.6 °F 75% 30.05 in 10.0 mi North 10.4 mph - N/A   Overcast
12:14 PM 33.8 °F 27.7 °F 26.6 °F 75% 30.05 in 10.0 mi North 6.9 mph - N/A   Overcast
12:53 PM 34.0 °F 26.6 °F 27.0 °F 75% 30.04 in 10.0 mi NNE 9.2 mph - N/A   Overcast
1:53 PM 36.0 °F 31.1 °F 28.0 °F 73% 30.06 in 10.0 mi NNW 5.8 mph - N/A   Overcast
2:53 PM 37.0 °F 33.3 °F 28.0 °F 70% 30.09 in 10.0 mi NNW 4.6 mph - N/A   Partly Cloudy
3:53 PM 36.0 °F 28.0 °F 25.0 °F 64% 30.10 in 10.0 mi NW 11.5 mph 18.4 mph N/A   Overcast
4:53 PM 34.0 °F 26.6 °F 24.1 °F 67% 30.12 in 10.0 mi NNW 9.2 mph - N/A   Mostly Cloudy
5:53 PM 33.1 °F 26.1 °F 23.0 °F 66% 30.15 in 10.0 mi NW 8.1 mph - N/A   Clear
6:53 PM 32.0 °F 25.6 °F 21.0 °F 64% 30.20 in 10.0 mi NNW 6.9 mph - N/A   Clear
7:53 PM 30.9 °F 26.2 °F 19.9 °F 64% 30.21 in 10.0 mi NNW 4.6 mph - N/A   Clear
8:53 PM 30.9 °F 22.8 °F 19.0 °F 61% 30.22 in 10.0 mi North 9.2 mph - N/A   Clear
9:53 PM 30.0 °F 23.2 °F 19.0 °F 64% 30.24 in 10.0 mi North 6.9 mph - N/A   Clear
10:53 PM 28.9 °F 22.8 °F 19.0 °F 67% 30.26 in 10.0 mi NNW 5.8 mph - N/A   Clear
11:53 PM 27.0 °F 19.5 °F 19.0 °F 72% 30.26 in 10.0 mi NNE 6.9 mph - N/A   Clear